Theta_e
314 308 307 307 308 309 309 310 310 309 308 307 305 302 297 297 298 298 295 292 291 294 297 298 297 297 297 296 296 296 296 296 295 295 295 295 294 294 293 293 292 291 292 292
310 310 308 308 308 308 310 309 308 307 306 305 304 304 298 297 298 298 295 292 292 294 295 297 296 297 296 296 296 296 296 296 295 295 296 295 295 294 294 293 293 292 292 292
311 309 308 309 306 305 305 305 303 303 306 305 305 302 299 298 298 298 293 293 292 295 296 295 296 297 296 296 296 296 296 296 296 296 296 296 295 295 295 294 294 293 292 292
307 306 308 308 306 304 307 305 306 306 305 308 303 304 301 298 298 295 292 291 291 294 296 295 296 296 296 296 296 296 296 296 296 296 296 295 295 294 293 293 293 294 293 292
311 308 306 306 305 304 305 306 307 308 307 306 305 304 300 298 299 294 293 292 292 294 296 295 296 296 296 296 296 295 296 296 296 296 296 296 294 292 292 293 293 293 293 292
307 306 304 303 304 304 303 306 307 308 306 309 308 305 299 298 297 295 294 293 293 295 296 296 296 296 296 295 295 295 295 296 296 295 295 295 293 292 292 293 293 293 292 292
308 307 304 304 304 304 304 304 308 309 312 312 306 302 299 296 295 294 294 294 293 295 296 295 295 295 296 295 295 295 295 296 295 295 295 294 293 292 293 293 293 293 292 293
312 314 305 302 302 303 303 304 305 308 309 306 304 303 302 296 295 294 293 292 293 295 295 295 295 296 296 295 295 295 295 295 295 295 295 294 293 293 293 293 292 293 293 293
313 312 303 302 301 301 305 304 303 303 305 307 305 300 298 296 296 294 293 292 293 295 296 295 295 296 295 295 295 295 295 295 295 295 295 294 294 294 293 293 293 293 293 293
309 312 306 303 302 302 302 302 306 303 306 306 305 303 300 296 295 294 294 292 293 296 296 295 295 295 295 295 295 295 295 295 295 295 294 294 294 294 293 293 293 293 293 292
307 308 308 305 304 305 302 303 302 301 301 305 304 304 297 296 295 293 293 291 293 296 295 294 294 294 295 294 294 295 295 295 294 294 294 294 294 293 294 293 293 293 293 292
307 307 309 308 301 302 302 303 301 305 309 300 301 302 297 294 293 293 293 292 293 295 295 294 294 294 294 294 294 295 295 295 294 294 294 294 294 294 294 294 293 292 293 292
306 308 310 312 306 302 303 303 302 302 299 304 304 305 294 293 293 293 291 291 292 295 295 294 293 294 294 294 294 295 295 294 294 294 294 293 294 294 293 294 293 293 292 293
306 308 312 313 313 308 305 302 300 301 301 303 305 304 296 294 294 292 291 290 292 294 295 293 292 293 293 294 294 295 295 294 295 294 294 293 293 294 293 294 294 293 293 292
305 308 310 309 308 307 307 304 300 298 301 304 305 303 301 298 294 291 290 290 292 295 295 294 292 293 293 294 294 294 295 294 295 294 294 293 293 294 294 294 294 294 293 293
302 308 308 308 305 304 304 304 303 300 300 299 300 300 298 292 290 290 289 290 292 294 295 295 294 293 293 294 294 294 294 294 295 294 294 293 293 293 294 294 295 295 294 293
303 307 306 310 306 306 307 303 303 302 301 301 302 301 293 293 292 291 289 289 291 293 295 294 294 294 294 293 293 293 294 294 294 294 294 294 293 292 293 294 295 295 295 294
305 306 305 306 308 311 310 302 303 303 303 300 301 296 295 295 293 291 289 289 290 293 294 294 294 294 293 293 293 293 294 294 294 294 294 294 293 292 292 294 294 294 295 294
302 304 304 307 312 309 308 302 302 304 306 303 302 297 295 293 292 293 290 289 290 292 294 295 294 294 293 292 292 293 293 294 294 294 294 294 293 292 292 293 294 294 294 294
301 305 304 301 306 309 312 303 302 303 306 304 301 297 294 291 290 288 288 290 292 294 295 294 294 293 292 292 292 293 293 293 294 294 294 294 293 293 292 292 293 293 293 293
299 298 303 305 307 310 309 300 301 311 309 301 300 296 293 293 290 289 289 290 293 294 295 294 294 293 293 292 292 292 292 292 294 294 294 294 293 293 292 291 292 290 291 291
302 302 302 303 306 310 299 299 304 305 300 300 298 294 293 291 289 289 290 291 293 294 294 294 293 293 293 293 292 292 291 292 294 294 294 294 293 293 292 292 290 289 289 290
308 306 306 308 310 306 298 302 298 298 298 298 296 294 292 290 289 289 291 291 293 294 294 294 293 293 293 293 292 292 292 292 294 294 294 294 293 294 293 292 292 292 291 290
306 306 310 309 308 307 299 298 299 299 298 296 295 293 292 291 289 289 290 291 292 293 293 293 293 293 293 293 293 292 292 292 294 294 294 294 293 294 293 293 292 292 292 291
303 305 306 305 304 307 303 299 298 298 297 296 294 293 292 290 289 290 290 291 292 293 293 293 293 293 293 293 293 292 292 291 293 294 293 293 294 293 293 293 293 292 292 292
301 303 306 308 305 306 306 302 297 298 296 295 294 292 291 291 289 290 290 292 292 293 293 293 293 293 292 292 292 292 292 292 293 293 293 293 293 293 293 293 293 293 292 292
Wind_Speed
2 6 2 2 2 3 4 4 1 2 3 4 6 6 10 8 5 3 3 3 6 5 7 11 14 15 13 17 19 19 20 21 23 26 26 22 25 23 22 21 23 27 27 28
7 2 1 3 2 3 4 3 3 2 2 3 3 1 9 7 4 5 4 5 5 5 6 9 13 16 15 17 19 20 20 21 22 24 24 22 23 22 19 20 25 27 28 28
5 3 1 2 3 6 4 2 3 3 3 3 3 4 6 5 4 4 6 3 4 5 5 6 13 15 16 16 18 19 19 21 23 22 24 25 24 22 20 23 26 29 31 31
4 2 2 3 3 2 2 1 2 4 2 2 4 4 4 5 5 6 2 5 6 5 5 8 11 13 16 16 17 18 19 22 22 22 25 26 26 21 25 26 26 30 31 34
1 2 4 4 0 1 3 1 1 2 1 2 2 2 5 6 3 3 1 5 4 4 5 6 9 10 13 13 16 18 19 21 21 23 25 25 21 30 25 27 29 30 31 34
2 1 2 1 2 2 1 2 1 2 2 2 4 4 4 4 5 3 2 1 2 5 5 7 8 8 14 11 16 18 20 21 20 24 25 17 25 28 29 30 31 32 31 31
1 1 1 1 2 2 2 4 4 4 4 4 1 2 5 4 4 5 5 4 3 4 4 4 6 8 13 13 16 18 19 20 20 23 25 14 26 26 29 31 31 31 29 31
5 3 2 4 2 1 2 4 4 3 3 5 2 5 4 5 5 5 6 6 4 5 3 4 6 8 10 12 16 17 18 19 21 23 22 18 24 23 25 27 28 31 28 28
2 1 0 3 2 1 2 3 3 3 3 3 3 1 3 4 3 4 6 5 3 3 3 4 7 8 12 12 15 16 18 18 21 23 17 24 22 25 23 28 24 29 27 26
1 1 3 2 0 1 2 3 2 3 1 4 5 2 4 7 7 5 4 5 2 3 3 3 8 9 13 14 16 16 17 19 21 22 14 26 23 23 21 27 27 29 23 28
0 3 1 2 3 4 1 1 2 4 5 4 3 6 5 9 8 7 5 6 5 4 3 2 8 11 11 13 15 17 17 20 21 22 15 24 23 23 23 23 27 27 23 27
1 4 3 2 1 1 1 3 4 4 4 2 4 6 4 9 8 7 6 6 5 5 4 5 7 10 10 13 14 17 17 19 20 21 17 22 22 23 23 24 22 25 26 24
3 1 2 1 2 2 3 4 4 5 3 5 4 6 4 5 6 7 8 6 4 5 5 5 7 8 8 13 14 15 16 17 19 20 18 20 23 19 23 23 18 24 23 22
1 2 6 6 5 5 4 5 5 5 3 3 6 6 6 8 8 7 7 7 6 5 4 4 5 5 6 12 11 14 16 17 19 19 19 20 21 19 23 18 20 17 19 23
3 5 3 5 4 5 5 5 9 8 5 6 3 5 4 7 11 9 8 7 6 6 5 4 4 3 6 11 11 13 15 16 17 18 19 19 20 18 21 17 21 17 17 16
2 3 1 3 3 4 5 8 11 7 4 9 11 16 3 4 7 7 9 8 6 6 5 5 6 3 4 10 10 11 17 14 15 16 17 18 19 18 18 20 21 21 16 17
6 4 2 4 2 4 8 9 13 6 6 7 7 8 8 5 8 9 9 9 8 7 6 5 6 3 1 6 9 10 14 13 13 15 17 18 18 18 18 18 22 23 19 17
5 4 2 3 3 2 4 2 6 9 5 12 3 6 11 7 6 7 8 9 8 7 7 7 6 4 2 4 8 7 11 12 13 16 18 19 18 17 18 18 20 21 20 21
4 4 2 3 3 7 3 5 7 8 8 15 15 8 6 6 4 3 7 7 8 8 10 9 8 5 1 2 6 6 8 10 12 17 18 19 18 17 18 19 20 20 20 20
4 5 4 3 3 6 4 3 4 4 5 5 10 12 11 7 3 5 9 10 11 12 12 12 9 3 2 1 4 6 8 8 12 17 18 17 17 17 19 18 20 20 18 17
3 2 5 3 3 9 4 7 4 3 6 6 9 10 13 7 5 4 10 10 16 14 13 12 8 6 3 1 2 4 6 7 10 15 15 15 15 15 16 18 17 20 18 17
8 7 4 3 1 8 7 4 8 5 1 6 6 9 9 7 8 11 9 10 16 14 15 12 9 7 5 4 1 3 5 7 9 14 13 12 12 13 13 16 18 19 20 19
3 7 6 10 7 3 12 3 5 5 5 6 8 6 11 12 8 10 8 10 16 17 15 14 11 8 4 4 1 3 5 7 9 14 14 12 11 13 14 15 16 18 19 20
4 5 3 2 4 8 10 8 5 6 6 6 6 9 14 13 11 10 9 10 15 16 16 14 13 10 7 4 1 3 5 5 7 12 14 12 13 13 13 13 13 14 17 19
5 7 6 5 7 2 8 13 9 7 7 7 7 8 14 13 13 11 10 13 17 19 16 15 14 12 8 6 2 2 5 4 5 10 12 12 12 13 14 13 14 16 16 16
5 8 6 7 8 5 5 8 12 12 11 10 12 9 11 14 13 14 12 19 19 21 18 15 13 12 9 7 4 3 3 2 3 7 9 9 10 11 12 13 15 11 13 14
Wind_Direction
186 70 124 192 164 232 254 260 354 128 152 168 232 173 186 196 196 145 62 67 57 33 26 40 37 24 22 18 10 5 5 4 4 1 360 356 358 1 5 0 355 350 353 345
30 99 194 316 312 322 300 316 26 71 150 143 293 270 184 177 191 179 110 83 67 26 13 35 35 24 21 15 8 4 6 4 3 0 0 355 351 351 353 353 351 350 353 349
135 194 205 261 43 25 44 69 358 276 235 251 340 325 162 212 133 161 71 107 58 40 34 32 32 26 13 9 6 1 5 2 1 3 360 356 354 352 352 349 345 347 352 349
112 219 259 256 87 31 289 307 298 295 80 274 130 291 222 188 176 87 30 55 42 25 28 45 39 24 4 360 3 2 6 4 4 5 1 357 357 358 351 348 352 342 343 348
22 71 15 65 127 45 232 248 255 268 226 29 245 85 278 138 193 130 18 57 35 30 67 48 40 19 0 0 7 4 3 6 6 5 2 358 10 2 4 3 356 355 352 349
99 356 78 198 291 206 14 353 274 357 87 2 227 132 232 193 184 166 52 51 52 38 47 46 24 10 360 12 10 5 1 4 7 5 3 18 9 8 7 1 356 351 355 348
106 161 192 231 329 9 39 49 349 357 6 238 197 47 263 161 150 166 182 172 88 56 54 40 13 8 3 16 10 3 359 5 9 7 4 15 9 14 7 1 355 352 354 354
162 297 3 328 87 198 313 123 140 269 293 280 18 244 300 186 184 171 168 126 84 46 48 25 13 6 18 17 7 0 3 8 10 7 8 10 9 0 359 4 0 359 355 0
152 254 137 66 34 107 309 65 166 105 320 6 231 28 324 215 204 190 153 107 90 64 66 24 359 24 20 13 9 7 7 13 11 7 12 10 8 6 360 4 9 5 9 4
196 93 202 178 51 314 62 186 71 20 1 290 294 266 234 224 213 184 149 144 128 92 73 20 22 33 22 17 10 12 14 14 10 7 16 14 14 11 11 12 12 11 18 17
128 111 188 75 193 178 68 78 74 121 138 177 302 275 220 196 183 184 181 174 158 138 117 46 79 34 22 14 9 14 15 12 10 9 13 13 13 12 11 12 16 14 20 20
202 142 171 242 249 55 123 173 137 121 251 197 146 274 172 163 172 170 193 175 151 137 126 88 87 36 17 358 18 14 14 12 11 10 13 13 9 14 12 7 12 20 23 18
172 229 24 269 319 343 211 201 122 114 79 208 138 264 177 175 179 194 172 171 150 140 118 96 73 35 9 8 14 11 12 14 12 12 15 14 14 13 11 11 14 21 24 23
49 194 173 199 205 140 178 179 173 137 126 200 229 282 208 216 212 182 186 167 155 148 137 130 91 32 2 2 11 13 9 12 13 16 16 16 16 15 12 15 15 10 17 25
137 212 217 242 195 174 189 172 192 193 200 173 252 244 210 218 194 182 176 173 153 152 147 143 130 48 356 355 10 11 7 11 13 16 16 15 16 15 15 23 16 13 18 18
183 253 345 289 160 199 247 212 199 215 242 270 267 284 175 118 110 153 179 170 169 163 166 152 139 96 5 357 4 1 360 3 11 16 16 14 14 16 13 16 19 17 17 15
155 150 99 272 256 307 293 211 182 184 203 167 200 227 153 170 184 189 187 179 175 174 178 168 155 147 36 17 5 7 1 4 9 12 14 12 13 16 11 9 13 15 16 12
155 128 107 224 35 305 249 93 186 197 221 207 194 173 182 183 196 187 177 170 173 170 174 159 158 140 53 8 353 3 6 8 8 7 7 8 9 11 12 11 11 12 11 13
62 116 74 135 209 285 249 203 162 171 274 205 211 164 165 123 84 247 173 161 166 173 172 166 154 143 65 352 356 9 7 9 4 3 1 3 6 6 8 10 8 9 10 13
66 71 116 73 149 232 251 169 144 104 291 194 168 165 155 133 153 248 168 144 154 168 173 158 154 157 117 346 2 360 2 2 0 354 354 2 7 10 10 8 9 9 14 15
109 23 162 171 236 285 228 155 141 124 237 166 166 158 157 180 196 166 143 145 167 175 170 163 165 172 165 230 356 353 353 355 349 354 1 3 10 13 13 16 19 13 20 25
164 148 189 104 131 277 147 77 170 209 103 153 148 159 163 140 135 145 147 147 160 168 168 170 170 183 190 206 317 342 340 343 349 357 5 4 10 12 10 12 22 20 24 26
200 184 180 183 210 221 201 208 215 171 159 182 153 153 143 145 159 158 164 161 171 180 183 181 179 188 204 190 301 336 346 350 353 2 4 3 6 10 8 2 1 5 13 17
235 170 193 88 237 215 212 230 210 192 190 169 153 146 157 161 162 163 162 170 172 180 180 179 177 192 192 174 239 314 344 352 357 4 8 6 11 5 4 2 355 353 355 0
195 136 176 262 275 296 238 217 185 189 167 149 148 156 164 156 169 168 170 176 176 178 183 186 189 193 195 199 223 281 340 339 2 5 6 2 3 4 358 354 356 357 1 348
194 179 169 218 213 177 232 213 172 176 181 170 158 151 161 164 167 166 171 178 178 177 178 187 198 196 198 207 220 246 311 324 357 356 357 359 354 356 355 350 353 14 3 0